Погода в Ковде

Погода в Ковде : погода сейчас, прогноз погоды и архив. Всё, что Вы хотите узнать о погоде в Ковде!

Поиск расширенной информации на нашем сайте:

Другие новости

Новости СМИ2

Главная страница сайта

Новости сайта

03.07.2017

Напоминаем, что на нашем специализированном сайте Метеоцентр.Азия вы можете получить высокодетализированные автоматические прогнозы погоды по пунктам России, СНГ и мира в авиационном формате (включающие направление и скорость ветра, видимость, явления погоды, количество и форму облачности, нижнюю и верхнюю границу облачности).

Рекомендуем: Организации National University of Ireland.

Погода в Ковде - сегодня

Время (UTC), дата Ветер
(°,м/с) 
Видим.   Явления Облачность Т
(°С)
Тd
(°С)
f(%) Тe
(°С)
Pmin
(гПа)
dP
(гПа)
Po
(мм)
O2
(г/м3)
Тmin Tmax R s Состояние
почвы
15 19.07.17 210 (ЮЗ) 1-2  20000 м  осадки на расстоянии  6/5 300 м кучево-дожд., средняя 
[Cb cap|Ac cuf]
+17.5 +11.3 67 +22  1008.8  0.1  755  284           
18 19.07.17 270 (З) 1-1  20000 м    8/4 600 м средняя 
[Sc diur, vesp|Ac cuf]
+17.3 +10.1 63 +20  1009.2  0.4  755  284    +20       
21 19.07.17 270 (З) 1-1  н/о    н/о 
+12.5 +11.1 91 +16  1009.2  755  289           
00 20.07.17 300 (СЗ) 2-3  н/о    н/о 
+12.8 +9.6 81 +14  1009.5  0.3  756  289           
03 20.07.17 040 (СВ) 3-6  н/о    н/о 
+14.4 +11.5 83 +18  1010.3  0.8  756  287  +12         
06 20.07.17 050 (СВ) 4-6  20000 м    6/3 600 м средняя, верхняя 
[Cu Sc|Ac cuf|Ci fib]
+14.4 +10.6 78 +16  1011.2  0.9  757  288  +12        влажная 
09 20.07.17 010 (С) 3-5  20000 м    10/10 600 м 
[Sc]
+15.3 +11.6 79 +19  1011.3  0.1  757  287           
12 20.07.17 050 (СВ) 3-5  20000 м  в посл. час ливневой дождь  10/10 300 м кучево-дожд. 
[Cb cap]
+14 +9.9 76 +15  1012  0.7  757  289           
15 20.07.17 040 (СВ) 4-8{10}  20000 м    10/10 600 м 
[Cu Sc]
+13.1 +9.1 77 +13  1013.2  1.1  758  290      0.0     
18 20.07.17 040 (СВ) 3-5  20000 м  слаб. ливневой дождь  10/10 300 м кучево-дожд. 
[Cb cap]
+11.5 +9.2 86 +11  1014.1  0.9  759  292    +15.7  0.1     
21 20.07.17 030 (СВ) 4-7  н/о    н/о 
+11.1 +8.6 85 +10  1014.4  0.3  759  292           
00 21.07.17 050 (СВ) 2-4  н/о    н/о 
+10.1 +8.9 92 +10  1014.8  0.4  760  294           
03 21.07.17 340 (С) 4-6  н/о    н/о 
+10.4 +8.7 89 +10  1015.2  0.4  760  293  +10         
06 21.07.17 340 (С) 4-6  10 км  слаб. ливневой дождь  10/10 300 м кучево-дожд. 
[Cb cap]
+11.3 +9.1 86 +11  1015.7  0.5  760  293  +10      влажная 
09 21.07.17 340 (С) 4-6  10 км  слаб. ливневой дождь  10/10 300 м кучево-дожд. 
[Cb cap]
+10.8 +9.5 92 +10  1016.5  0.8  761  293           
12 21.07.17 330 (СЗ) 5-8{10}  20000 м  слаб. ливневой дождь  10/10 600 м 
[Cu Sc]
+11.7 +8.9 83 +11  1017  0.6  761  293           
15 21.07.17 340 (С) 5-7  20000 м    10/10 600 м 
[Sc]
+12.3 +9.2 81 +11  1017.4  0.4  761  292         
18 21.07.17 350 (С) 5-6  20000 м    10/10 600 м 
[Cu Sc]
+12.1 +9.5 84 +11  1018.1  0.7  762  292    +12.5     
21 21.07.17 330 (СЗ) 3-5  н/о    н/о 
+11.6 +9.8 89 +12  1018.9  0.8  763  293           
00 22.07.17 330 (СЗ) 2-4  н/о    н/о 
+11.3 +9.8 90 +13  1019.2  0.3  763  293           
03 22.07.17 030 (СВ) 4-6  н/о    н/о 
+11.6 +9.9 89 +12  1020.2  764  293  +11.1         
06 22.07.17 010 (С) 3-5  20000 м    9/9 600 м 
[Sc]
+13.8 +10.4 80 +15  1021  0.8  764  291  +11.1        влажная 
09 22.07.17 360 (С) 3-4  20000 м    10/10 600 м 
[Sc]
+14.1 +11.1 82 +16  1021.6  0.6  765  291           
12 22.07.17 010 (С) 2-4  20000 м    6/6 600 м 
[Cu Sc]
+17.9 +11.7 67 +22  1021.5  0.1  765  287           
15 22.07.17 340 (С) 4-6  20000 м    6/4 600 м верхняя 
[Sc diur, vesp|Ci fib]
+18.4 +11.5 64 +22  1020.8  -0.7  764  286           
Время (UTC), дата Ветер
(°,м/с) 
Видим.   Явления Облачность Т
(°С)
Тd
(°С)
f(%) Тe
(°С)
Pmin
(гПа)
dP
(гПа)
Po
(мм)
O2
(г/м3)
Тmin Tmax R s Состояние
почвы

Для получения пояснительной информации подведите курсор к названию столбца.

ПОГОДА в Ковде - архив

Всё, что Вы хотите узнать о погоде в Ковде - удобно и подробно!

Выберите нужную дату (начиная с 1 января 2015* года) и нажмите кнопку "Найти".
Будут отображены архивные сводки погоды по пункту Ковда, начиная с указанной даты.


Отображать данные в формате CSV (для использования в таблицах Excel)


Внимание! Наш архив погоды предназначен исключительно для личного некоммерческого использования в познавательных целях. Если Вам необходимы официальные справки о состоянии погоды (для производственных, юридических, коммерческих и т.п. целей), обращайтесь в органы Росгидромета.

*Примечание: данная дата относится к архиву по метеостанциям СССР (Россия, СНГ, Балтия).
Архив по метеостанциям Зарубежной Европы и Азии (кроме Китая) хранится 10 дней, по другим регионам земного шара (Китай, Африка, Америка, Австралия, Океания) - 1 день.

Ковда - район местоположения метеостанции


Название, широта, долгота, высота метеостанции:
Ковда 66.7°ш. 32.9°д. 18 м над ур. моря [Российская Федерация]

Дополнительная информация

В oтличие oт бoльшинства пoгoдных сайтoв мы публикуем пoдрoбную метеoинфoрмацию в детальнoм прoфессиoнальнoм фoрмате.

Характеристики температуры и влажнoсти вoздуха измеряются на высoте 2 м в тени вдали oт зданий и деревьев.
Скoрoсть ветра измеряется на высoте 10 м (на урoвне рoста челoвека скoрoсть ветра ниже в 1.5-2 раза). Если метеoстанция нахoдится в гoрoде или в лесу, тo скoрoсть ветра занижена на 2-4 м/с пo сравнению с oткрытым местoм. Скoрoсть ветра над акватoриями крупных рек и oзёр, а также на вершинах хoлмoв на 2-5 м/с выше, чем в oбычных услoвиях.
Атмoсфернoе давление в разных тoчках местнoсти мoжет значительнo oтличаться oт давления на метеoстанции, в зависимoсти oт услoвий рельефа (при пoдъёме на 10 м давление пoнижается примернo на 1 мм рт.ст.).